When you browse on this site, cookies collect data to enhance your experience and personalize the content and advertising you see.
Visit our Privacy Policy to learn more. By continuing to use the site, you agree to this use of cookies and data.
  • In Hungary
  • List of Countries
  • For 7 days
  • Water Temperature
  • Satellite Maps
  • Weather Map
  • News
  • Weather Widgets
  • user-avatar
    Login

    Hourly Weather Tallahassee

    Today, 10 December, Monday

    Time Temperature Precipitation Wind Pressure Humidity
    00:00 +8°C° 0 mm 3 mps 759 mmHg 82%
    01:00 +8°C° 0 mm 3 mps 759 mmHg 81%
    02:00 +7°C° 0 mm 3 mps 759 mmHg 80%
    03:00 +7°C° 0 mm 3 mps 759 mmHg 79%
    04:00 +7°C° 0 mm 3 mps 760 mmHg 79%
    05:00 +7°C° 0 mm 3 mps 760 mmHg 79%
    06:00 +7°C° 0 mm 3 mps 760 mmHg 79%
    07:00 +7°C° 0 mm 3 mps 761 mmHg 77%
    08:00 +7°C° 0 mm 3 mps 761 mmHg 75%
    09:00 +6°C° 0 mm 4 mps 762 mmHg 73%
    10:00 +8°C° 0 mm 3 mps 762 mmHg 72%
    11:00 +8°C° 0 mm 3 mps 762 mmHg 70%
    12:00 +9°C° 0 mm 3 mps 762 mmHg 68%
    13:00 +9°C° 0 mm 3 mps 762 mmHg 69%
    14:00 +8°C° 0 mm 3 mps 761 mmHg 70%
    15:00 +8°C° 0 mm 3 mps 761 mmHg 71%
    16:00 +8°C° 0 mm 3 mps 762 mmHg 72%
    17:00 +8°C° 0 mm 3 mps 762 mmHg 73%
    18:00 +8°C° 0 mm 3 mps 763 mmHg 74%
    19:00 +7°C° 0 mm 3 mps 763 mmHg 75%
    20:00 +7°C° 0 mm 3 mps 763 mmHg 76%
    21:00 +7°C° 0 mm 3 mps 764 mmHg 77%
    22:00 +7°C° 0 mm 3 mps 764 mmHg 78%
    23:00 +7°C° 0 mm 3 mps 764 mmHg 79%

    Tomorrow, 11 December, Tuesday

    Time Temperature Precipitation Wind Pressure Humidity
    00:00 +5°C° 0 mm 3 mps 764 mmHg 80%
    01:00 +5°C° 0 mm 3 mps 764 mmHg 82%
    02:00 +4°C° 0 mm 3 mps 764 mmHg 85%
    03:00 +4°C° 0 mm 3 mps 765 mmHg 87%
    04:00 +3°C° 0 mm 3 mps 765 mmHg 89%
    05:00 +3°C° 0 mm 3 mps 766 mmHg 90%
    06:00 +3°C° 0 mm 3 mps 766 mmHg 91%
    07:00 +4°C° 0 mm 3 mps 766 mmHg 84%
    08:00 +7°C° 0 mm 3 mps 767 mmHg 76%
    09:00 +8°C° 0 mm 3 mps 768 mmHg 69%
    10:00 +10°C° 0 mm 3 mps 767 mmHg 63%
    11:00 +12°C° 0 mm 2 mps 767 mmHg 58%
    12:00 +14°C° 0 mm 2 mps 766 mmHg 52%
    13:00 +14°C° 0 mm 2 mps 766 mmHg 53%
    14:00 +14°C° 0 mm 2 mps 766 mmHg 54%
    15:00 +14°C° 0 mm 2 mps 765 mmHg 55%
    16:00 +13°C° 0 mm 2 mps 766 mmHg 62%
    17:00 +10°C° 0 mm 2 mps 766 mmHg 69%
    18:00 +10°C° 0 mm 1 mps 767 mmHg 76%
    19:00 +9°C° 0 mm 1 mps 767 mmHg 78%
    20:00 +9°C° 0 mm 1 mps 767 mmHg 80%
    21:00 +8°C° 0 mm 1 mps 767 mmHg 82%
    22:00 +8°C° 0 mm 1 mps 767 mmHg 83%
    23:00 +7°C° 0 mm 1 mps 767 mmHg 84%

    Day after tomorrow, 12 December, Wednesday

    Time Temperature Precipitation Wind Pressure Humidity
    00:00 +7°C° 0 mm 1 mps 766 mmHg 85%
    01:00 +7°C° 0 mm 1 mps 766 mmHg 85%
    02:00 +6°C° 0 mm 1 mps 766 mmHg 86%
    03:00 +6°C° 0 mm 1 mps 766 mmHg 87%
    04:00 +6°C° 0 mm 1 mps 766 mmHg 87%
    05:00 +6°C° 0 mm 1 mps 766 mmHg 86%
    06:00 +5°C° 0 mm 1 mps 766 mmHg 86%
    07:00 +7°C° 0 mm 1 mps 767 mmHg 78%
    08:00 +9°C° 0 mm 1 mps 767 mmHg 70%
    09:00 +11°C° 0 mm 1 mps 767 mmHg 62%
    10:00 +13°C° 0 mm 1 mps 767 mmHg 58%
    11:00 +14°C° 0 mm 1 mps 766 mmHg 53%
    12:00 +16°C° 0 mm 1 mps 766 mmHg 48%
    13:00 +16°C° 0 mm 1 mps 765 mmHg 48%
    14:00 +16°C° 0 mm 1 mps 765 mmHg 49%
    15:00 +16°C° 0 mm 1 mps 765 mmHg 50%
    16:00 +14°C° 0 mm 1 mps 765 mmHg 53%
    17:00 +13°C° 0 mm 1 mps 765 mmHg 57%
    18:00 +11°C° 0 mm 1 mps 765 mmHg 61%
    19:00 +11°C° 0 mm 1 mps 765 mmHg 62%
    20:00 +10°C° 0 mm 2 mps 765 mmHg 62%
    21:00 +9°C° 0 mm 2 mps 765 mmHg 63%
    22:00 +9°C° 0 mm 2 mps 765 mmHg 62%
    23:00 +9°C° 0 mm 2 mps 765 mmHg 62%

    13 December, Thursday

    Time Temperature Precipitation Wind Pressure Humidity
    00:00 +10°C° 0 mm 2 mps 764 mmHg 61%
    01:00 +10°C° 0 mm 2 mps 764 mmHg 60%
    02:00 +10°C° 0 mm 2 mps 764 mmHg 58%
    03:00 +10°C° 0 mm 3 mps 764 mmHg 56%
    04:00 +10°C° 0 mm 3 mps 763 mmHg 60%
    05:00 +10°C° 0 mm 3 mps 763 mmHg 64%
    06:00 +10°C° 0 mm 3 mps 763 mmHg 68%
    07:00 +11°C° 0 mm 3 mps 764 mmHg 70%
    08:00 +13°C° 0 mm 4 mps 764 mmHg 72%
    09:00 +14°C° 0 mm 4 mps 764 mmHg 74%
    10:00 +15°C° 0 mm 4 mps 763 mmHg 74%
    11:00 +17°C° 0 mm 4 mps 763 mmHg 73%
    12:00 +17°C° 0 mm 5 mps 762 mmHg 73%
    13:00 +18°C° 0 mm 4 mps 761 mmHg 75%
    14:00 +18°C° 0 mm 4 mps 761 mmHg 77%
    15:00 +19°C° 0 mm 4 mps 760 mmHg 79%
    16:00 +18°C° 0 mm 4 mps 760 mmHg 83%
    17:00 +18°C° 0 mm 4 mps 760 mmHg 86%
    18:00 +17°C° 0 mm 3 mps 760 mmHg 89%
    19:00 +17°C° 0 mm 3 mps 760 mmHg 91%
    20:00 +17°C° 0 mm 3 mps 760 mmHg 93%
    21:00 +16°C° 0 mm 3 mps 759 mmHg 95%
    22:00 +17°C° 0 mm 4 mps 759 mmHg 94%
    23:00 +17°C° 0 mm 4 mps 758 mmHg 94%

    14 December, Friday

    Time Temperature Precipitation Wind Pressure Humidity
    00:00 +17°C° 0 mm 4 mps 757 mmHg 94%
    01:00 +18°C° 0.1 mm 4 mps 756 mmHg 93%
    02:00 +18°C° 0.1 mm 4 mps 756 mmHg 92%
    03:00 +17°C° 0.1 mm 5 mps 755 mmHg 91%
    04:00 +19°C° 1.6 mm 5 mps 755 mmHg 91%
    05:00 +19°C° 1.6 mm 5 mps 754 mmHg 92%
    06:00 +19°C° 1.6 mm 6 mps 754 mmHg 92%
    07:00 +19°C° 1.5 mm 5 mps 754 mmHg 92%
    08:00 +17°C° 1.5 mm 5 mps 754 mmHg 92%
    09:00 +18°C° 1.5 mm 4 mps 755 mmHg 92%
    10:00 +17°C° 0.5 mm 5 mps 754 mmHg 86%
    11:00 +17°C° 0.5 mm 5 mps 754 mmHg 80%
    12:00 +17°C° 0.5 mm 5 mps 754 mmHg 74%
    13:00 +17°C° 0 mm 5 mps 753 mmHg 69%
    14:00 +17°C° 0 mm 6 mps 753 mmHg 64%
    15:00 +17°C° 0 mm 6 mps 753 mmHg 59%
    16:00 +16°C° 0 mm 5 mps 754 mmHg 65%
    17:00 +14°C° 0 mm 4 mps 754 mmHg 71%
    18:00 +13°C° 0 mm 3 mps 754 mmHg 77%
    19:00 +12°C° 0 mm 3 mps 754 mmHg 79%
    20:00 +12°C° 0 mm 3 mps 755 mmHg 81%
    21:00 +11°C° 0 mm 3 mps 755 mmHg 83%
    22:00 +11°C° 0.1 mm 3 mps 755 mmHg 79%
    23:00 +11°C° 0.1 mm 4 mps 755 mmHg 76%

    15 December, Saturday

    Time Temperature Precipitation Wind Pressure Humidity
    00:00 +10°C° 0.1 mm 5 mps 754 mmHg 72%
    01:00 +10°C° 0 mm 4 mps 755 mmHg 71%
    02:00 +10°C° 0 mm 4 mps 755 mmHg 70%
    03:00 +8°C° 0 mm 4 mps 755 mmHg 69%
    04:00 +8°C° 0 mm 4 mps 755 mmHg 70%
    05:00 +7°C° 0 mm 4 mps 756 mmHg 72%
    06:00 +7°C° 0 mm 4 mps 756 mmHg 73%
    07:00 +8°C° 0 mm 4 mps 757 mmHg 71%
    08:00 +8°C° 0 mm 5 mps 757 mmHg 69%
    09:00 +9°C° 0 mm 5 mps 758 mmHg 67%
    10:00 +10°C° 0 mm 5 mps 757 mmHg 65%
    11:00 +12°C° 0 mm 5 mps 757 mmHg 63%
    12:00 +13°C° 0 mm 5 mps 757 mmHg 61%
    13:00 +13°C° 0 mm 4 mps 757 mmHg 60%
    14:00 +14°C° 0 mm 4 mps 757 mmHg 60%
    15:00 +14°C° 0 mm 4 mps 758 mmHg 59%
    16:00 +13°C° 0 mm 3 mps 758 mmHg 65%
    17:00 +11°C° 0 mm 3 mps 758 mmHg 71%
    18:00 +10°C° 0 mm 2 mps 759 mmHg 78%
    19:00 +10°C° 0 mm 2 mps 759 mmHg 80%
    20:00 +9°C° 0 mm 2 mps 760 mmHg 82%
    21:00 +9°C° 0 mm 2 mps 760 mmHg 84%
    22:00 +9°C° 0 mm 2 mps 760 mmHg 87%
    23:00 +8°C° 0 mm 2 mps 760 mmHg 90%
    Show more